Flag for Hungary Weather past 2 weeks in Miskolc, Hungary

Now
53 °F

Passing clouds.


Feels Like: 53 °F
Forecast: 35 / 52 °F
Wind: 2 mph from Northeast

Location: Miskolc

Current Time: Oct 25, 2014 at 4:33:27 PM

Latest Report: Oct 25, 2014 at 3:00 PM


Visibility: 25 mi

Pressure: 30.27 "Hg

Humidity: 59%

Dew point: 39 °F

Location of MiskolcLocation

Historic Weather in Miskolc — Graph

°F

Miskolc temperature yesterday

Maximum temperature yesterday: 46 °F (at 12:00 AM)
Minimum temperature yesterday: 40 °F (at 5:00 PM)
Average temperature yesterday: 43 °F

Past Weeks' High & Low Weather Summary

 TemperatureHumidityPressure
High74 °F (Oct 14, 3:00 PM)94% (Oct 16, 4:00 AM)30.39 "Hg (Oct 16, 4:00 AM)
Low40 °F (Oct 24, 5:00 PM)50% (Oct 18, 2:00 PM)29.47 "Hg (Oct 22, 2:00 PM)
Average55 °F83%29.96 "Hg
* Reported Oct 10 3:00 PM — Oct 25 3:00 PM, Miskolc, Weather by CustomWeather, © 2014

Note: Actual official high and low records may vary slightly from our data, if they occured in-between our weather recording intervals... More about our weather records

Advertising

Miskolc weather history for previous 24 hours

 ConditionsComfort  
Time TempWeatherWind HumidityBarometerVisibility
3:00 PM
Oct 25
53 °FPassing clouds.2 mph59%30.27 "Hg25 mi
2:00 PM53 °FPassing clouds.1 mph56%30.28 "Hg25 mi
1:00 PM50 °FPartly sunny.1 mph62%30.29 "Hg22 mi
12:00 PM47 °FOvercast.No wind70%30.30 "Hg19 mi
11:00 AM46 °FOvercast.No wind71%30.30 "Hg16 mi
10:00 AM44 °FOvercast.1 mph71%30.29 "Hg19 mi
9:00 AM43 °FOvercast.1 mph76%30.29 "Hg16 mi
8:00 AM42 °FOvercast.1 mph80%30.27 "Hg6 mi
7:00 AM41 °FOvercast.1 mph80%30.25 "Hg4 mi
6:00 AM41 °FOvercast.2 mph76%30.25 "Hg5 mi
5:00 AM41 °FOvercast.1 mph77%30.25 "Hg4 mi
4:00 AM41 °FOvercast.1 mph78%30.26 "Hg4 mi
3:00 AM41 °FOvercast.1 mph84%30.26 "Hg4 mi
2:00 AM40 °FOvercast.1 mph83%30.25 "Hg5 mi
1:00 AM40 °FOvercast.1 mph80%30.24 "Hg5 mi
12:00 AM40 °FOvercast.1 mph80%30.24 "Hg5 mi
11:00 PM
Oct 24
40 °FOvercast.1 mph81%30.24 "Hg5 mi
10:00 PM40 °FOvercast.2 mph80%30.23 "Hg4 mi
9:00 PM40 °FOvercast.2 mph82%30.21 "Hg4 mi
8:00 PM40 °FOvercast.2 mph81%30.20 "Hg4 mi
7:00 PM40 °FOvercast.1 mph83%30.19 "Hg4 mi
6:00 PM40 °FOvercast.2 mph84%30.18 "Hg6 mi
5:00 PM40 °FOvercast.2 mph85%30.16 "Hg5 mi
4:00 PM40 °FLight rain. Overcast.2 mph88%30.15 "Hg4 mi
Weather by CustomWeather, © 2014

See weather overviewHow to use our weather pages